User: anonymous   Login
Location: Karlovy Vary
(50.2170°N, 12.9000°E)
Time: 08:15:17
(UTC+01:00)
Language:

ISS - Orbit

View from above orbital plane
View from above orbital plane
View from above satellite
View from above satellite

Ground track
Ground track

The orbit data is extracted from the following two-line orbital elements,

1 25544U 98067A   22335.13242700  .00061776  00000-0  10939-2 0  9995
2 25544  51.6445 229.5538 0004304 114.9029  32.5078 15.49681409371078
Epoch (UTC): 01 December 2022 03:10:41
Eccentricity: 0.0004304
inclination: 51.6445°
perigee height: 415 km
apogee height: 420 km
right ascension of ascending node: 229.5538°
argument of perigee: 114.9029°
revolutions per day: 15.49681409
mean anomaly at epoch: 32.5078°
orbit number at epoch: 37107

The dashed part of the orbit path shows where the satellite is in the earth's shadow,  

DLR